Overview Statistics Trail Chart Weather Telemetry Raw packets
 

This is the latest recevied weather packets stored in our database for station/object IU3OVK-13. If no packets are shown the sender has not sent any weather packets the latest 10 day(s).

<< 11 12 13 14 15 16 17 >>
Time Temp. Humidity Pressure Rain* Wind** Luminosity Snow
1788401437 17.78° C 99% 1011.9 hPa - - - -
1788400817 17.78° C 99% 1011.9 hPa - - - -
1788400197 17.78° C 99% 1012.2 hPa - - - -
1788399577 18.33° C 99% 1012.1 hPa - - - -
1788398957 18.33° C 99% 1012.1 hPa - - - -
1788397716 19.44° C 99% 1011.8 hPa - - - -
1788397096 18.89° C 99% 1011.8 hPa - - - -
1788395856 19.44° C 99% 1011.8 hPa - - - -
1788395236 18.89° C 99% 1012.1 hPa - - - -
1788394616 19.44° C 99% 1011.8 hPa - - - -
1788393995 19.44° C 99% 1011.5 hPa - - - -
1788392755 19.44° C 99% 1012.1 hPa - - - -
1788392135 20° C 99% 1011.6 hPa - - - -
1788391514 20° C 99% 1011.7 hPa - - - -
1788390894 20° C 99% 1011.5 hPa - - - -
1788390274 20° C 99% 1011.6 hPa - - - -
1788384978 21.67° C 99% 1011.9 hPa - - - -
1788384358 22.22° C 99% 1011.7 hPa - - - -
1788383738 21.67° C 99% 1011.3 hPa - - - -
1788383117 21.67° C 99% 1011.2 hPa - - - -
1788382497 21.67° C 99% 1011.5 hPa - - - -
1788381878 21.67° C 99% 1011.4 hPa - - - -
1788381257 22.22° C 99% 1011.9 hPa - - - -
1788380637 22.22° C 99% 1011.5 hPa - - - -
1788380016 22.78° C 99% 1011.7 hPa - - - -

* Rain since midnight (hover to see other rain measurements)
** Current wind speed in m/s (hover to see current wind gust speed)